Weather History for Cook, MN

Change the Weather History Date:

Thursday, November 8, 2012

  Actual Average Record
Temperature  
Mean Temperature 38 °F -  
Max Temperature 44 °F 36 °F 71 °F (1999)
Min Temperature 33 °F 22 °F -13 °F (2003)
Degree Days  
Heating Degree Days 26    
Moisture  
Dew Point 34 °F    
Average Humidity 84    
Maximum Humidity 93    
Minimum Humidity 66    
Precipitation  
Precipitation 0.01 in - - ()
Sea Level Pressure  
Sea Level Pressure 29.94 in    
Wind  
Wind Speed 7 mph (SW)    
Max Wind Speed 13 mph    
Max Gust Speed 23 mph    
Visibility 10 miles    
Events Rain    
Averages and records for this station are not official NWS values.
T = Trace of Precipitation, MM = Missing Value Source: NWS Daily Summary

Daily Weather History Graph

Daily Weather History Graph

Search for Another Location

Airport:

Trip Planner

Search our weather history database for the weather conditions in past years. The results will help you decide how hot, cold, wet, or windy it might be!

Date:

Astronomy

Nov. 08, 2012 Rise Set
Actual Time 7:06 AM CST 4:41 PM CST
Civil Twilight 6:33 AM CST 5:14 PM CST
Nautical Twilight 5:56 AM CST 5:51 PM CST
Astronomical Twilight 5:20 AM CST 6:27 PM CST
Moon 12:37 AM CST (11/8) 1:45 PM CST (11/8)
Length of Visible Light 10h 41m
Length of Day
9h 34m
Waning Crescent, 32% of the Moon is Illuminated
Nov 8
Waning Crescent
Nov 13
New
Nov 20
First Quarter
Nov 28
Full
Dec 6
Last Quarter

Hourly Weather History & Observations

Time (CST) Temp. Windchill Dew Point Humidity Pressure Visibility Wind Dir Wind Speed Gust Speed Precip Events Conditions
12:17 AM 35.6 °F 30.7 °F 33.8 °F 93% 29.96 in 10.0 mi SSE 5.8 mph - N/A   Overcast
12:37 AM 37.4 °F 32.1 °F 33.8 °F 87% 29.95 in 10.0 mi SSE 6.9 mph - N/A   Mostly Cloudy
12:56 AM 37.4 °F 33.8 °F 33.8 °F 87% 29.97 in 10.0 mi South 4.6 mph - N/A   Overcast
1:16 AM 37.4 °F 34.9 °F 33.8 °F 87% 29.97 in 10.0 mi South 3.5 mph - N/A   Mostly Cloudy
1:56 AM 37.4 °F 32.1 °F 33.8 °F 87% 29.95 in 5.0 mi South 6.9 mph - N/A Rain Rain
2:16 AM 37.4 °F 31.4 °F 33.8 °F 87% 29.94 in 10.0 mi SSE 8.1 mph 18.4 mph 0.01 in Rain Light Rain
2:37 AM 37.4 °F 32.8 °F 33.8 °F 87% 29.94 in 10.0 mi South 5.8 mph - 0.01 in   Overcast
2:56 AM 37.4 °F 29.8 °F 33.8 °F 87% 29.93 in 10.0 mi South 11.5 mph 18.4 mph N/A   Overcast
3:16 AM 37.4 °F 30.3 °F 33.8 °F 87% 29.90 in 10.0 mi SSE 10.4 mph 19.6 mph N/A   Overcast
3:37 AM 37.4 °F 30.8 °F 33.8 °F 87% 29.90 in 10.0 mi South 9.2 mph 17.3 mph N/A   Overcast
3:56 AM 37.4 °F 30.8 °F 33.8 °F 87% 29.89 in 10.0 mi SSE 9.2 mph 19.6 mph N/A   Mostly Cloudy
4:16 AM 37.4 °F 29.3 °F 33.8 °F 87% 29.87 in 10.0 mi SSE 12.7 mph 21.9 mph N/A   Scattered Clouds
4:37 AM 37.4 °F 30.3 °F 32.0 °F 81% 29.88 in 10.0 mi SSW 10.4 mph 21.9 mph N/A   Scattered Clouds
5:16 AM 37.4 °F 31.4 °F 32.0 °F 81% 29.86 in 10.0 mi SSE 8.1 mph 17.3 mph N/A   Scattered Clouds
5:36 AM 37.4 °F 32.1 °F 32.0 °F 81% 29.86 in 10.0 mi South 6.9 mph 19.6 mph N/A   Scattered Clouds
5:56 AM 37.4 °F 30.3 °F 32.0 °F 81% 29.86 in 10.0 mi South 10.4 mph 16.1 mph N/A   Light Drizzle
6:16 AM 37.4 °F 30.8 °F 32.0 °F 81% 29.85 in 10.0 mi South 9.2 mph 17.3 mph N/A   Mostly Cloudy
6:57 AM 35.6 °F 29.2 °F 32.0 °F 87% 29.86 in 10.0 mi South 8.1 mph 17.3 mph N/A   Clear
7:16 AM 35.6 °F 29.9 °F 32.0 °F 87% 29.86 in 10.0 mi South 6.9 mph - N/A   Clear
7:36 AM 35.6 °F 28.0 °F 32.0 °F 87% 29.87 in 10.0 mi South 10.4 mph 17.3 mph N/A   Clear
7:57 AM 37.4 °F 31.4 °F 32.0 °F 81% 29.88 in 10.0 mi South 8.1 mph - N/A   Clear
8:16 AM 37.4 °F 30.3 °F 32.0 °F 81% 29.88 in 10.0 mi South 10.4 mph - N/A   Clear
8:36 AM 37.4 °F 30.3 °F 32.0 °F 81% 29.88 in 10.0 mi South 10.4 mph 17.3 mph N/A   Clear
8:57 AM 37.4 °F 30.8 °F 32.0 °F 81% 29.87 in 10.0 mi South 9.2 mph 16.1 mph N/A   Clear
9:16 AM 37.4 °F 30.8 °F 32.0 °F 81% 29.83 in 10.0 mi SSE 9.2 mph - N/A   Clear
9:37 AM 37.4 °F 29.8 °F 32.0 °F 81% 29.84 in 10.0 mi South 11.5 mph 23.0 mph N/A   Mostly Cloudy
9:57 AM 39.2 °F 33.6 °F 33.8 °F 81% 29.88 in 10.0 mi WSW 8.1 mph - N/A   Scattered Clouds
10:37 AM 41.0 °F 34.7 °F 33.8 °F 76% 29.87 in 10.0 mi SW 10.4 mph 18.4 mph N/A   Clear
10:57 AM 41.0 °F 34.7 °F 33.8 °F 76% 29.88 in 10.0 mi SSW 10.4 mph - N/A   Clear
11:16 AM 42.8 °F 38.0 °F 33.8 °F 70% 29.86 in 10.0 mi SSW 8.1 mph - N/A   Clear
11:37 AM 42.8 °F 38.6 °F 33.8 °F 70% 29.86 in 10.0 mi SW 6.9 mph - N/A   Scattered Clouds
11:57 AM 44.6 °F 38.8 °F 33.8 °F 66% 29.86 in 10.0 mi West 11.5 mph - N/A   Mostly Cloudy
12:16 PM 42.8 °F 37.5 °F 33.8 °F 70% 29.86 in 10.0 mi West 9.2 mph - N/A   Overcast
12:37 PM 42.8 °F 36.6 °F 35.6 °F 76% 29.87 in 10.0 mi West 11.5 mph 16.1 mph N/A   Overcast
12:56 PM 42.8 °F 37.0 °F 35.6 °F 76% 29.88 in 10.0 mi West 10.4 mph - N/A   Overcast
1:16 PM 42.8 °F 37.0 °F 35.6 °F 76% 29.89 in 10.0 mi West 10.4 mph - N/A   Overcast
1:36 PM 42.8 °F 38.0 °F 35.6 °F 76% 29.89 in 10.0 mi West 8.1 mph - N/A   Overcast
1:56 PM 42.8 °F 37.5 °F 33.8 °F 70% 29.90 in 10.0 mi West 9.2 mph - N/A   Overcast
2:17 PM 42.8 °F 38.6 °F 35.6 °F 76% 29.90 in 10.0 mi West 6.9 mph - N/A   Overcast
2:36 PM 42.8 °F 38.0 °F 35.6 °F 76% 29.91 in 10.0 mi West 8.1 mph - N/A   Overcast
2:56 PM 41.0 °F 35.8 °F 35.6 °F 81% 29.92 in 10.0 mi WNW 8.1 mph - N/A   Overcast
3:17 PM 39.2 °F 33.0 °F 35.6 °F 87% 29.93 in 10.0 mi WNW 9.2 mph - N/A   Overcast
3:36 PM 39.2 °F 35.0 °F 35.6 °F 87% 29.94 in 10.0 mi West 5.8 mph - N/A   Overcast
3:56 PM 39.2 °F 35.9 °F 35.6 °F 87% 29.95 in 10.0 mi WNW 4.6 mph - N/A   Overcast
4:17 PM 39.2 °F 37.0 °F 35.6 °F 87% 29.96 in 10.0 mi WNW 3.5 mph - N/A   Overcast
4:36 PM 39.2 °F - 35.6 °F 87% 29.97 in 10.0 mi Calm Calm - N/A   Overcast
4:56 PM 39.2 °F - 35.6 °F 87% 29.98 in 10.0 mi Calm Calm - N/A   Overcast
5:17 PM 39.2 °F - 35.6 °F 87% 29.98 in 10.0 mi Calm Calm - N/A   Overcast
5:36 PM 39.2 °F 37.0 °F 35.6 °F 87% 29.99 in 7.0 mi WNW 3.5 mph - N/A   Light Drizzle
5:56 PM 39.2 °F - 37.4 °F 93% 30.00 in 7.0 mi Calm Calm - N/A   Overcast
6:17 PM 39.2 °F - 37.4 °F 93% 30.01 in 4.0 mi Calm Calm - N/A   Overcast
6:36 PM 39.2 °F 35.9 °F 37.4 °F 93% 30.01 in 4.0 mi NW 4.6 mph - N/A   Overcast
6:56 PM 39.2 °F 34.2 °F 37.4 °F 93% 30.02 in 5.0 mi NNW 6.9 mph - N/A   Drizzle
7:17 PM 39.2 °F 35.9 °F 35.6 °F 87% 30.02 in 10.0 mi North 4.6 mph - N/A   Overcast
7:36 PM 37.4 °F 33.8 °F 35.6 °F 93% 30.03 in 10.0 mi North 4.6 mph - N/A   Overcast
7:57 PM 37.4 °F 33.8 °F 35.6 °F 93% 30.03 in 10.0 mi North 4.6 mph - N/A   Overcast
8:17 PM 37.4 °F 34.9 °F 33.8 °F 87% 30.04 in 10.0 mi NNE 3.5 mph - N/A   Overcast
8:36 PM 37.4 °F 32.8 °F 33.8 °F 87% 30.05 in 10.0 mi North 5.8 mph - N/A   Overcast
8:57 PM 37.4 °F 32.8 °F 33.8 °F 87% 30.06 in 10.0 mi North 5.8 mph - N/A   Overcast
9:16 PM 37.4 °F 33.8 °F 33.8 °F 87% 30.07 in 10.0 mi North 4.6 mph - N/A   Overcast
9:36 PM 35.6 °F 31.7 °F 32.0 °F 87% 30.07 in 10.0 mi NNE 4.6 mph - N/A   Overcast
9:57 PM 35.6 °F 30.7 °F 32.0 °F 87% 30.07 in 10.0 mi North 5.8 mph - N/A   Overcast
10:16 PM 35.6 °F 30.7 °F 32.0 °F 87% 30.08 in 10.0 mi North 5.8 mph - N/A   Drizzle
10:37 PM 33.8 °F 30.8 °F 32.0 °F 93% 30.09 in 7.0 mi North 3.5 mph - N/A Rain Light Rain
10:56 PM 33.8 °F 29.6 °F 32.0 °F 93% 30.09 in 10.0 mi North 4.6 mph - N/A Rain Light Rain
11:16 PM 33.8 °F 30.8 °F 32.0 °F 93% 30.09 in 10.0 mi North 3.5 mph - N/A   Overcast
11:37 PM 33.8 °F - 30.2 °F 87% 30.09 in 10.0 mi Calm Calm - N/A   Overcast
11:57 PM 33.8 °F 30.8 °F 32.0 °F 93% 30.10 in 10.0 mi North 3.5 mph - N/A   Overcast